Home > Weather > Aix-en-Provence > Past weeks

Flag for France Past Weather in Aix-en-Provence, Provence-Alpes-Côte d'Azur, France — Yesterday and Last 2 Weeks

Now
68 °F

Sunny.


Feels Like: 68 °F
Forecast: 64 / 91 °F
Wind: 6 mph from North

Location: Marseille / Marignane

Current Time: Jul 24, 2016 at 8:55:23 AM

Latest Report: Jul 24, 2016 at 8:00 AM


Visibility: 10 mi

Pressure: 29.98 "Hg

Humidity: 78%

Dew Point: 61 °F

Location of Aix-en-ProvenceLocation

Past Weather in Aix-en-Provence — Graph

°F

Aix-en-Provence Temperature Yesterday

Maximum temperature yesterday: 82 °F (at 4:30 PM)
Minimum temperature yesterday: 70 °F (at 6:00 AM)
Average temperature yesterday: 74 °F

High & Low Weather Summary for the Past Weeks

 TemperatureHumidityPressure
High95 °F (Jul 9, 4:00 PM)89% (Jul 11, 12:30 AM)30.18 "Hg (Jul 11, 12:30 AM)
Low61 °F (Jul 16, 4:00 AM)19% (Jul 19, 3:30 PM)29.86 "Hg (Jul 12, 3:30 PM)
Average75 °F55%30.02 "Hg
* Reported Jul 9 7:00 AM — Jul 24 7:30 AM, Aix-en-Provence, Weather by CustomWeather, © 2016

Note: Actual official high and low records may vary slightly from our data, if they occured in-between our weather recording intervals... More about our weather records

Advertising

Aix-en-Provence Weather History for the Previous 24 Hours

Scroll right to see more
 ConditionsComfort  
Time TempWeatherWind HumidityBarometerVisibility
7:30 AM
Sun, Jul 24
66 °FSunny.1 mph88%29.98 "Hg10 mi
7:00 AM64 °FClear.5 mph88%29.98 "Hg10 mi
6:30 AM64 °FClear.2 mph88%29.98 "Hg10 mi
6:00 AM64 °FClear.2 mph88%29.98 "Hg10 mi
5:30 AM64 °FClear.No wind88%29.98 "Hg10 mi
5:00 AM64 °FClear.No wind88%29.98 "Hg10 mi
4:30 AM66 °FClear.3 mph88%29.98 "Hg10 mi
4:00 AM66 °FPassing clouds.3 mph83%29.98 "HgN/A
3:30 AM68 °FClear.6 mph83%29.98 "Hg10 mi
3:00 AM66 °FClear.No wind88%29.98 "Hg10 mi
2:30 AM68 °FClear.2 mph83%29.98 "Hg10 mi
2:00 AM72 °FClear.7 mph73%29.98 "Hg10 mi
1:30 AM70 °FClear.3 mph78%29.98 "Hg10 mi
1:00 AM70 °FClear.6 mph78%29.98 "Hg10 mi
12:30 AM68 °FClear.3 mph83%29.98 "Hg10 mi
12:00 AM70 °FPassing clouds.6 mph78%29.98 "HgN/A
11:30 PM
Sat, Jul 23
72 °FClear.3 mph78%29.98 "Hg10 mi
11:00 PM72 °FClear.6 mph78%29.98 "Hg10 mi
10:30 PM72 °FClear.2 mph78%29.98 "Hg10 mi
10:00 PM73 °FSunny.3 mph69%29.98 "Hg10 mi
9:30 PM73 °FSunny.1 mph69%29.95 "Hg10 mi
9:00 PM75 °FSunny.2 mph61%29.95 "Hg10 mi
8:30 PM75 °FSunny.No wind65%29.95 "Hg10 mi
8:00 PM75 °FSunny.3 mph65%29.95 "Hg10 mi
7:30 PM75 °FSunny.2 mph65%29.95 "Hg10 mi
7:00 PM75 °FSunny.3 mph61%29.95 "Hg10 mi
6:30 PM73 °FPartly sunny.3 mph69%29.95 "HgN/A
6:00 PM73 °FLight rain. Broken clouds.2 mph69%29.95 "HgN/A
5:30 PM73 °FMore clouds than sun.8 mph69%29.98 "HgN/A
5:00 PM75 °FBroken clouds.15 mph57%29.95 "HgN/A
4:30 PM82 °FPassing clouds.13 mph48%29.98 "HgN/A
4:00 PM77 °FPartly sunny.9 mph57%29.95 "HgN/A
3:30 PM75 °FLight rain. Scattered clouds.6 mph69%29.98 "HgN/A
3:00 PM73 °FLight rain. Broken clouds.9 mph74%29.98 "HgN/A
2:30 PM73 °FLight rain. Broken clouds.10 mph74%29.98 "HgN/A
2:00 PM77 °FLight rain. Partly sunny.10 mph61%29.98 "HgN/A
1:30 PM77 °FLight rain. Partly sunny.10 mph69%29.98 "HgN/A
1:00 PM79 °FWarm.8 mph61%29.98 "HgN/A
12:30 PM79 °FWarm.3 mph61%29.98 "HgN/A
12:00 PM79 °FWarm.3 mph58%29.95 "HgN/A
11:30 AM77 °FSunny.2 mph65%29.95 "Hg10 mi
11:00 AM77 °FPartly sunny.7 mph65%29.95 "HgN/A
10:30 AM77 °FWarm.3 mph65%29.95 "HgN/A
10:00 AM75 °FSunny.8 mph69%29.92 "Hg10 mi
9:30 AM73 °FMild.7 mph74%29.92 "HgN/A
9:00 AM73 °FMild.6 mph74%29.92 "HgN/A
8:30 AM73 °FSunny.5 mph74%29.92 "Hg10 mi
8:00 AM72 °FPartly sunny.6 mph78%29.92 "HgN/A
Weather by CustomWeather, © 2016

See weather overviewHow to use our weather pages